Weather in Vyazovka

Russia / Astrakhan Oblast     48°18′51″N   45°35′59″E
temp.,
°C
wind,
m/s
gust,
m/s
humid.,
%
clouds,
%
prec.,
mm/h
press.,
hPa
HPBL,
m
1 august, sun
sun101:00+27sse33260 0.0 101016
04:00+25s33270 0.0 101130
07:00+27e22260 0.0 101233
10:00+33ese44160 0.0 1012719
13:00+36sse22140 0.0 10113336
16:00+37sw23130 0.0 10103671
19:00+36wnw221412 0.0 10092117
22:00+30ene24250 0.0 101051
2 august, mon
mon201:00+29sse33320 0.0 101032
04:00+27sse334212 0.0 101021
07:00+29ssw34415 0.0 1011104
10:00+34s333019 0.0 10121152
13:00+37sse55195 0.0 10112863
16:00+38s65165 0.0 10093861
19:00+37ssw46140 0.0 10093292
22:00+31sw222139 0.0 101013
3 august, tue
tue301:00+28nne33385 0.0 101038
04:00+28sse333050 0.0 101026
07:00+29s35286 0.0 101195
10:00+36s55140 0.0 1011862
13:00+39ssw66112 0.0 10103349
16:00+40ssw66872 0.0 10093789
19:00+39ssw57100 0.0 10082889
22:00+32ssw44140 0.0 100932
4 august, wed
wed401:00+30s44164 0.0 100939
04:00+28ssw491997 0.0 1009136
07:00+28w372296 0.0 1009166
10:00+33nnw4421100 0.0 1010782
13:00+35nw332595 0.3 10101450
16:00+37nw5521100 0.3 10103242
19:00+34nw7727100 0.0 10111396
22:00+29nnw611335 0.1 1012318
5 august, thu
thu501:00+26n6123999 0.0 1013410
04:00+24n5104795 0.0 1014318
07:00+24n5949100 0.0 1015316
10:00+29nne663864 0.0 10151038
13:00+32n55250 0.0 10152636
16:00+33nne66190 0.0 10142989
19:00+32nne651968 0.0 10142727
22:00+26ne472666 0.0 1015104